Regional Weather Roundup
Issued by NWS

Home | Current Version | Previous Version | Text Only | Print | Product List | Glossary On
Versions: 1 2 3 4 5 6 7 8 9 10 11 12 13 14 15 16 17 18 19 20 21 22 23 24 25 26 27 28 29 30 31 32 33 34 35 36 37 38 39 40 41 42 43 44 45 46 47 48 49 50
746
ASUS44 KLIX 240310
RWRLA
LOUISIANA WEATHER ROUNDUP
NATIONAL WEATHER SERVICE NEW ORLEANS LA
900 PM CST SUN NOV 23 2014

NOTE: "FAIR" INDICATES FEW OR NO CLOUDS BELOW 12,000 FEET WITH NO
      SIGNIFICANT WEATHER AND/OR OBSTRUCTIONS TO VISIBILITY.
      SKY/WX - SKY CONDITION AND SIGNIFICANT WEATHER.
      TMP - AIR TEMPERATURE.    DP   - DEWPOINT TEMPERATURE.
      RH  - RELATIVE HUMIDITY.  PRES - PRESSURE.
      HX  - HEAT INDEX.         WCI  - WIND CHILL INDEX.

*  THESE STATIONS ARE NOT NWS OR FAA STATIONS AND ARE NOT UNDER
   NWS QUALITY CONTROL.

LAZ040-048-061>063-065-066-069-240400-
SOUTHEAST LOUISIANA

CITY           SKY/WX    TMP DP  RH WIND       PRES   REMARKS
N.O. AUDUBON     N/A     67  67 100 MISG        N/A
N.O. INTL ARPT PTCLDY    66  63  90 S8        29.73R
N.O. LAKEFRONT MOCLDY    69  65  86 SW13      29.74R
N.O. DOWNTOWN* CLOUDY    70  63  78 S8        29.74R
SLIDELL        CLOUDY    67  64  90 S8        29.73R
BATON ROUGE    MOCLDY    69  64  84 SW16G28   29.69R
BOOTHVILLE     PTCLDY    67  67 100 S13       29.75S
BELLE CHASSE   CLOUDY    69  65  86 S12       29.74R
BOGALUSA*        N/A     64  58  81 S6        29.72R
NEW ROADS*     FAIR      67  64  93 S9G16     29.68R
GONZALES*      CLOUDY    67  67 100 S5        29.70R
HAMMOND*       MOCLDY    68  63  83 S8        29.72R
HOUMA*         CLEAR     69  67  93 S9        29.73R FOG
PORT FOURCHON* MOCLDY    72  68  88 S10G17    29.78R FOG

$$

LAZ041-044-053-054-240400-
SOUTHWEST LOUISIANA

CITY           SKY/WX    TMP DP  RH WIND       PRES   REMARKS
LAKE CHARLES   CLEAR     66  63  90 SW7       29.68R
LAFAYETTE      MOCLDY    69  66  90 SW14      29.69R
PATTERSON      CLEAR     68  64  88 SW9       29.73S
SALT POINT       N/A     69  65  86 VRB3      29.70R
NEW IBERIA     CLOUDY    67  65  93 SW12      29.70R FOG
CHENAULT AIRPK CLEAR     66  64  91 SW10      29.68R

$$

LAZ027-028-240400-
CENTRAL LOUISIANA

CITY           SKY/WX    TMP DP  RH WIND       PRES   REMARKS
FORT POLK      CLEAR     62  58  84 S7        29.63R
ALEXANDRIA INT CLEAR     64  59  83 S14       29.61R
ALEXANDRIA     CLEAR     64  59  83 SW8       29.62R

$$

LAZ001-002-240400-
NORTHWEST LOUISIANA

CITY           SKY/WX    TMP DP  RH WIND       PRES   REMARKS
SHREVEPORT     CLEAR     64  53  67 SW10      29.56R
BARKSDALE AFB  CLEAR     65  53  65 SW10      29.56R
DTN SHREVEPORT CLEAR     65  51  60 SW10      29.56R

$$

LAZ014-016-240400-
NORTHEAST LOUISIANA

CITY           SKY/WX    TMP DP  RH WIND       PRES   REMARKS
MONROE         CLEAR     64  58  80 S14G22    29.56R
TALLULAH       CLEAR     65  58  78 S9G16     29.59R

$$




USA.gov is the U.S. government's official web portal to all federal, state and local government web resources and services.